Flag for Denmark Weather past 2 weeks in Aarhus, Denmark

Now
48 °F

Sunny.


Feels Like: 48 °F
Forecast: 45 / 61 °F
Wind: 1 mph from North

Location: Tirstrup


UV Index: 3 (Moderate)

Visibility: 10 mi


Pressure: 30.24 "Hg

Humidity: 76%

Dew point: 41 °F

Location of AarhusLocation

Historic Weather in Aarhus

°F

Aarhus temperature yesterday

Maximum temperature yesterday: 48 °F (at 11:20 AM)
Minimum temperature yesterday: 37 °F (at 3:50 AM)
Average temperature yesterday: 44 °F

Past Weeks' High & Low Weather Summary

 TemperatureHumidityPressure
High57 °F (Apr 6, 2:20 PM)94% (Apr 6, 10:50 AM)30.45 "Hg (Apr 6, 10:50 AM)
Low30 °F (Apr 16, 4:50 AM)26% (Apr 16, 1:20 PM)29.47 "Hg (Apr 14, 5:50 AM)
Average46 °F74%29.95 "Hg
* Reported Apr 4 8:20 PM — Apr 19 8:50 PM, Aarhus, Weather by CustomWeather, © 2014

Note: Actual official high and low records may vary slightly from our data, if they occured in-between our weather recording intervals... More about our weather records

Advertising

Historic Weather Conditions — Data for Previous 24 hours

 ConditionsComfort  
Time TempWeatherWind HumidityBarometerVisibility
8:50 PM
Apr 19
50 °FSunny.3 mph71%30.21 "Hg10 mi
8:20 PM54 °FSunny.3 mph63%30.21 "Hg10 mi
7:50 PM54 °FCool.2 mph63%30.21 "HgN/A
7:20 PM55 °FRefreshingly cool.6 mph55%30.21 "HgN/A
6:50 PM55 °FRefreshingly cool.7 mph51%30.24 "HgN/A
6:20 PM55 °FRefreshingly cool.7 mph51%30.24 "HgN/A
5:50 PM55 °FRefreshingly cool.9 mph51%30.24 "HgN/A
5:20 PM57 °FRefreshingly cool.8 mph48%30.24 "HgN/A
4:50 PM57 °FRefreshingly cool.9 mph48%30.24 "HgN/A
4:20 PM57 °FRefreshingly cool.8 mph51%30.27 "HgN/A
3:50 PM57 °FRefreshingly cool.9 mph51%30.27 "HgN/A
3:20 PM57 °FRefreshingly cool.7 mph51%30.27 "HgN/A
2:50 PM55 °FRefreshingly cool.8 mph59%30.27 "HgN/A
2:20 PM55 °FRefreshingly cool.7 mph59%30.27 "HgN/A
1:50 PM55 °FPassing clouds.8 mph55%30.27 "HgN/A
1:20 PM55 °FPassing clouds.7 mph59%30.27 "HgN/A
12:50 PM54 °FPassing clouds.7 mph63%30.27 "HgN/A
12:20 PM54 °FPassing clouds.7 mph63%30.27 "HgN/A
11:50 AM54 °FPassing clouds.7 mph63%30.30 "HgN/A
11:20 AM52 °FPassing clouds.6 mph67%30.27 "HgN/A
10:50 AM52 °FPassing clouds.5 mph67%30.27 "HgN/A
10:20 AM50 °FPassing clouds.6 mph71%30.27 "HgN/A
9:50 AM50 °FPassing clouds.6 mph67%30.27 "HgN/A
9:20 AM48 °FPassing clouds.6 mph76%30.27 "HgN/A
8:50 AM46 °FPassing clouds.6 mph82%30.27 "HgN/A
8:20 AM45 °FQuite cool.5 mph87%30.24 "HgN/A
7:50 AM39 °FScattered clouds.1 mph93%30.24 "Hg1 mi
7:20 AM39 °FFog.No wind87%30.24 "Hg0 mi
6:50 AM36 °FFog.No wind93%30.24 "Hg0 mi
6:20 AM39 °FFog.6 mph87%30.24 "Hg0 mi
5:50 AM39 °FPassing clouds.1 mph87%30.21 "Hg1 mi
5:20 AM37 °FFog.1 mph87%30.21 "Hg0 mi
4:50 AM37 °FFog.1 mph87%30.21 "Hg0 mi
4:20 AM43 °FFog.6 mph81%30.18 "Hg0 mi
3:50 AM43 °FFog.5 mph87%30.18 "Hg0 mi
3:20 AM45 °FFog.5 mph87%30.18 "Hg1 mi
2:50 AM45 °FFog.5 mph87%30.18 "Hg1 mi
2:20 AM45 °FQuite cool.6 mph87%30.15 "HgN/A
1:50 AM45 °FQuite cool.6 mph87%30.15 "HgN/A
1:20 AM46 °FCool.7 mph82%30.15 "HgN/A
12:50 AM46 °FPassing clouds.6 mph82%30.15 "HgN/A
12:20 AM46 °FPassing clouds.7 mph82%30.12 "HgN/A
11:50 PM
Apr 18
46 °FPassing clouds.8 mph82%30.12 "HgN/A
11:20 PM46 °FPassing clouds.6 mph82%30.12 "HgN/A
10:50 PM45 °FPassing clouds.6 mph81%30.09 "HgN/A
10:20 PM45 °FPassing clouds.5 mph81%30.09 "HgN/A
Weather by CustomWeather, © 2014

See weather overview